This is the latest recevied weather packets stored in our database for station/object K3MV-13. If no packets are shown the sender has not sent any weather packets the latest 10 day(s).
| Time | Temp. | Humidity | Pressure | Rain* | Wind** | Luminosity | Snow |
|---|---|---|---|---|---|---|---|
| 1777595517 | 6.11° C | 73% | 1013.9 hPa | 0 mm | - | 0 W/m² | - |
| 1777595214 | 6.67° C | 74% | 1013.8 hPa | 0 mm | - | 0 W/m² | - |
| 1777594909 | 6.11° C | 74% | 1013.9 hPa | 0 mm | - | 0 W/m² | - |
| 1777594606 | 6.11° C | 74% | 1013.6 hPa | 0 mm | - | 1 W/m² | - |
| 1777594303 | 6.11° C | 75% | 1013.6 hPa | 0 mm | - | 1 W/m² | - |
| 1777593999 | 6.11° C | 75% | 1013.7 hPa | 0 mm | - | 2 W/m² | - |
| 1777593695 | 6.11° C | 75% | 1013.6 hPa | 0 mm | - | 4 W/m² | - |
| 1777593391 | 6.11° C | 75% | 1013.5 hPa | 0 mm | - | 8 W/m² | - |
| 1777593090 | 6.11° C | 74% | 1013.4 hPa | 0 mm | - | 11 W/m² | - |
| 1777592789 | 6.67° C | 74% | 1013.4 hPa | 0 mm | - | 14 W/m² | - |
| 1777592486 | 6.67° C | 73% | 1013.4 hPa | 0 mm | - | 16 W/m² | - |
| 1777592181 | 6.67° C | 73% | 1013.4 hPa | 0 mm | - | 19 W/m² | - |
| 1777591878 | 6.67° C | 73% | 1013.5 hPa | 0 mm | - | 22 W/m² | - |
| 1777591574 | 6.67° C | 74% | 1013.3 hPa | 0 mm | - | 27 W/m² | - |
| 1777591270 | 7.22° C | 72% | 1013.4 hPa | 0 mm | - | 29 W/m² | - |
| 1777590966 | 7.22° C | 72% | 1013.3 hPa | 0 mm | - | 36 W/m² | - |
| 1777590661 | 7.78° C | 71% | 1013.3 hPa | 0 mm | - | 56 W/m² | - |
| 1777590358 | 7.22° C | 72% | 1013.5 hPa | 0 mm | - | 62 W/m² | - |
| 1777590055 | 7.22° C | 72% | 1013.4 hPa | 0 mm | - | 54 W/m² | - |
| 1777589751 | 7.78° C | 70% | 1013.3 hPa | 0 mm | - | 35 W/m² | - |
| 1777589450 | 8.33° C | 69% | 1013.4 hPa | 0 mm | - | 45 W/m² | - |
| 1777589146 | 7.78° C | 72% | 1013.6 hPa | 0 mm | - | 72 W/m² | - |
| 1777588842 | 7.78° C | 71% | 1013.7 hPa | 0 mm | - | 81 W/m² | - |
| 1777588538 | 7.78° C | 71% | 1013.4 hPa | 0 mm | - | 148 W/m² | - |
| 1777588234 | 7.78° C | 71% | 1013.7 hPa | 0 mm | - | 75 W/m² | - |
* Rain latest hour (hover to see other rain measurements)
** Current wind speed in m/s (hover to see current wind gust speed)